Find Starlink 35516

NORAD ID: 65918 Int'l Des: 2025-225 Owner: SPXS Country: US Constellation: starlink operational
LEOCIRCULAR

現在のビュー

3D地球を読み込み中...

Starlink 35516について

説明を読み込み中...

次回通過

Passes for default location (London). Set your location on the main map for personalized predictions.

高度履歴

Loading altitude history...

軌道要素

1 65918U 25225J 26149.96624448 .00022740 00000-0 77791-3 0 9999
2 65918 53.1573 148.0327 0001227 97.2540 262.8600 15.30184603 36856
Epoch: May 29, 2026 • Age: 13 hours

現在のステータス

高度 480.7 km
速度 7.63 km/s
衛星直下点 52.08°N, 149.39°E
打ち上げ日 Oct 8, 2025
運用期間 0.6 years
タイプ internet

技術仕様

分類 Payload
質量 575.00 kg
乾燥質量 530.00 kg
総質量 575.00 kg
長さ 0.30 m
直径 4.10 m
スパン 29.00 m
形状 Box + pan
製造者 SPXS
バスタイプ Starlink V2MO
フェーズステータス In Orbit
所有者/国 SPXS/US

Most Searched